Theta_e
325 324 323 322 322 322 322 322 322 321 321 321 320 320 320 319 319 319 318 318 318 317 316 315 315 315 315 314 314 315 315 316 316 316 317 316 316 315 315 315 316 315 315 314 313 314 313 313 313 313 313 313 312 312 312 311 311 310 310 310 309 307 306 305 305 304 303 303 303
324 323 323 322 322 322 322 321 321 321 321 320 320 320 320 320 319 319 319 319 319 318 318 317 316 315 315 314 314 314 315 315 315 316 316 316 316 316 315 316 316 316 316 315 314 314 314 313 313 313 313 312 312 312 311 311 311 310 310 309 308 308 307 306 305 304 304 304 304
323 323 323 322 322 321 321 321 320 320 320 320 320 320 320 320 320 319 319 319 318 318 318 318 317 317 316 315 315 314 314 314 315 316 316 316 316 315 316 316 316 316 316 316 315 315 315 314 314 314 313 313 312 312 311 310 310 310 309 308 308 308 308 307 306 305 305 306 305
323 323 322 322 321 321 321 321 320 319 319 320 319 319 319 320 319 319 319 318 317 317 318 319 318 318 317 317 315 315 314 314 315 315 316 316 316 316 316 316 316 316 316 316 316 315 315 314 314 314 314 312 312 312 312 311 311 311 311 309 309 309 308 308 307 307 307 306 305
322 322 322 322 321 321 321 321 320 319 319 320 319 319 319 319 319 318 318 318 318 318 318 318 319 319 319 318 316 315 314 314 315 315 316 316 315 316 316 316 316 316 316 316 316 316 315 314 315 314 313 313 313 313 312 311 311 311 311 310 310 309 309 309 308 308 307 305 304
322 322 322 322 321 321 321 321 320 320 319 319 319 318 318 319 318 318 318 318 318 317 317 318 318 319 319 318 317 316 315 314 314 315 315 315 315 315 315 316 316 316 316 316 316 315 315 315 315 315 313 313 313 312 312 312 312 311 311 310 310 310 309 309 309 308 306 304 302
322 322 321 321 321 321 321 320 319 319 319 319 318 318 318 318 318 317 317 317 317 317 316 318 318 319 319 318 317 316 315 315 314 314 315 315 315 315 316 316 316 316 316 316 316 315 315 315 315 315 314 314 313 312 312 312 312 312 311 309 309 309 309 308 308 307 306 304 303
322 322 321 321 321 321 320 319 319 319 319 318 318 318 317 317 317 317 317 317 317 317 317 318 318 318 319 318 318 317 316 315 315 314 314 315 315 315 315 316 316 316 316 316 316 316 316 316 316 315 315 314 313 313 312 312 312 311 310 309 308 308 308 309 308 307 305 304 303
322 322 322 321 321 320 320 320 319 319 318 318 317 317 317 317 316 316 316 316 317 317 317 318 318 318 318 318 318 317 317 316 315 315 314 315 314 315 315 316 316 316 316 317 316 316 316 316 316 315 315 314 314 313 313 312 312 311 310 309 308 308 308 308 308 307 305 304 304
322 322 322 321 321 320 320 320 319 319 318 317 317 317 317 317 316 317 317 317 317 317 317 317 317 318 318 318 318 318 317 317 316 315 315 315 315 315 315 316 316 316 316 316 316 316 316 316 315 315 314 315 314 313 312 312 312 311 310 309 308 308 308 308 307 307 306 305 304
322 322 322 321 321 320 320 319 319 319 318 317 317 316 317 316 317 317 317 317 317 317 317 317 317 317 318 319 319 318 318 317 317 316 315 315 315 315 315 316 316 316 316 316 316 316 316 316 315 314 314 314 313 313 312 312 311 310 309 309 308 307 307 307 307 307 306 305 304
323 323 323 322 321 320 320 319 319 319 318 317 317 317 317 317 316 317 317 317 316 316 316 317 317 318 318 319 319 319 318 318 317 316 315 315 315 315 315 315 316 316 316 316 316 316 316 316 314 314 313 313 313 313 312 311 310 309 308 308 308 308 307 307 307 306 306 305 304
324 323 323 323 321 321 320 319 319 319 318 318 317 317 317 317 317 317 317 316 316 317 317 317 317 318 318 319 319 319 318 318 317 316 316 315 315 315 315 315 315 316 316 316 316 316 316 315 314 313 313 313 313 313 312 311 310 309 308 308 308 308 308 307 307 306 306 305 304
325 324 324 323 322 321 320 319 319 319 319 318 318 317 318 317 317 317 317 317 317 316 316 316 317 317 318 318 319 319 318 318 317 316 316 316 316 315 315 315 315 316 316 316 316 316 316 315 314 313 313 313 312 312 312 311 311 310 309 308 308 308 308 308 307 307 306 305 305
325 324 324 324 322 321 320 319 320 319 319 318 318 318 318 318 318 318 317 317 317 317 317 317 317 317 318 318 318 318 318 318 317 316 316 316 315 315 315 315 315 316 316 316 316 316 315 314 314 314 313 313 312 312 312 311 311 310 310 310 309 309 308 308 308 307 306 305 305
324 324 325 324 323 322 321 320 320 320 319 319 319 319 319 318 318 318 318 317 317 317 317 317 317 317 317 317 318 318 318 318 317 316 316 316 315 315 315 315 315 316 316 316 316 316 315 315 315 314 313 313 313 312 312 312 311 311 310 310 310 310 309 309 308 307 307 306 305
324 324 325 325 324 323 321 321 320 321 320 319 319 319 319 319 319 319 318 318 318 317 317 316 317 316 317 317 317 317 317 317 317 316 316 316 315 316 315 316 316 316 317 317 316 316 315 315 315 314 314 314 313 313 312 312 312 312 311 311 311 310 310 309 308 307 307 306 305
323 323 324 325 324 323 322 321 321 320 320 320 320 320 320 320 319 319 319 318 318 318 317 316 316 317 316 316 317 317 317 317 317 316 316 316 316 316 316 316 316 317 317 317 317 316 316 315 315 315 314 314 314 313 313 312 312 312 311 311 311 311 310 309 308 308 307 306 305
322 323 324 324 324 324 323 322 321 320 320 320 320 320 320 320 320 319 319 319 319 318 318 317 317 317 316 316 316 317 317 317 316 316 316 316 316 316 316 316 317 317 317 317 317 317 316 315 315 315 315 314 315 314 314 313 313 312 311 311 310 310 309 308 308 307 307 306 305
322 322 322 324 324 324 324 323 322 320 320 320 320 320 320 320 320 320 320 319 319 319 319 318 317 317 316 316 316 317 317 317 317 316 316 316 316 316 316 317 317 317 317 317 317 317 316 315 315 315 315 315 314 314 314 313 312 311 311 310 309 308 308 308 307 306 305 305 304
322 322 322 323 323 324 324 324 323 321 320 319 319 319 320 320 320 320 319 319 319 319 319 318 318 317 317 317 316 316 316 317 317 316 316 316 316 316 316 317 317 317 317 317 317 316 316 315 315 315 315 314 314 314 313 312 311 310 310 309 308 307 306 306 305 305 304 303 303
322 323 323 323 323 323 324 325 324 322 321 319 319 319 319 320 320 320 319 320 319 320 319 319 318 318 317 317 317 317 317 317 317 317 317 317 316 316 317 317 317 317 316 316 316 315 315 315 315 315 315 314 314 313 313 311 310 308 307 306 306 305 304 304 304 303 303 302 302
322 324 323 323 323 323 322 324 324 323 322 320 318 318 319 319 319 319 319 319 319 319 319 319 319 318 318 318 318 317 317 317 317 317 317 317 317 317 317 317 317 317 316 316 315 315 315 315 315 315 314 314 313 312 311 310 308 307 306 304 304 303 303 303 302 302 302 301 301
321 323 324 324 323 322 322 323 324 324 323 321 319 318 318 319 319 319 318 318 319 319 319 320 320 319 319 319 318 318 318 317 317 317 317 317 317 317 316 317 317 317 316 316 316 315 315 315 315 315 314 313 312 311 310 308 307 305 304 303 302 302 301 301 301 301 301 300 300
317 321 323 323 323 323 322 322 323 323 323 322 320 318 317 318 319 318 318 317 318 319 319 319 319 319 319 319 319 318 318 317 317 317 316 316 316 316 316 316 316 316 316 315 315 315 315 316 315 314 313 312 311 309 308 306 305 305 303 303 302 301 300 300 299 299 299 299 299
312 318 322 323 323 322 322 322 322 323 323 322 321 319 318 317 318 318 318 317 317 318 319 319 319 319 319 319 318 318 318 318 318 317 316 316 316 315 315 316 316 316 315 315 314 315 316 316 315 314 312 310 309 307 306 305 305 304 303 302 302 300 299 298 298 298 298 298 298
308 314 320 323 323 323 323 322 322 322 322 322 321 320 319 318 319 318 317 317 317 317 318 319 319 318 318 319 318 318 318 318 317 317 316 316 315 315 315 316 316 315 315 314 315 315 316 315 314 312 311 309 307 306 305 304 304 303 302 302 301 300 299 298 297 297 297 297 298
305 309 316 321 322 322 323 323 322 322 322 322 322 322 321 319 318 318 318 317 317 317 317 319 318 319 319 319 318 318 318 317 317 317 317 316 315 315 315 315 315 315 314 314 315 315 315 315 313 312 310 308 307 305 305 304 303 302 302 301 300 300 298 298 297 297 297 297 297
304 306 310 317 321 322 322 322 322 322 322 322 323 323 322 320 319 319 318 318 317 317 318 318 319 319 319 318 318 317 317 317 317 317 316 316 315 315 315 315 314 314 314 314 315 315 315 314 312 311 310 308 307 306 305 304 303 302 301 301 300 299 298 298 298 297 297 297 297
305 304 306 311 317 320 322 322 322 322 323 323 323 322 322 321 320 319 319 318 317 317 317 318 318 318 318 318 318 317 317 317 316 316 316 315 315 314 314 314 314 314 314 314 315 314 313 312 311 310 309 308 307 306 305 304 303 302 301 300 299 298 298 297 297 297 297 297 296
304 304 304 306 311 316 320 322 323 323 323 322 322 322 321 321 320 319 319 319 318 317 317 317 317 317 317 317 317 317 316 316 316 315 315 315 314 314 314 314 314 314 313 313 314 313 313 312 311 310 309 308 307 306 305 303 302 301 300 299 298 298 298 298 297 297 296 296 295
305 304 304 304 307 311 316 321 322 322 323 322 322 321 320 320 320 320 320 319 319 318 317 316 316 316 315 315 315 316 316 316 316 316 315 315 315 314 314 314 314 314 313 313 313 313 312 311 311 310 309 308 307 305 304 303 302 301 300 299 298 298 298 298 297 296 296 296 295
305 304 303 303 305 308 313 318 321 322 322 322 321 320 319 318 319 320 320 320 319 318 318 317 316 316 315 315 315 315 315 315 316 316 315 315 314 314 314 314 314 313 313 312 313 312 312 311 310 309 309 307 306 304 303 302 301 300 299 299 298 298 298 297 296 296 296 296 295
305 304 303 303 304 306 310 315 319 321 322 322 322 321 320 319 318 319 319 320 319 318 318 317 317 317 316 316 315 315 315 315 315 315 315 314 314 314 313 313 314 313 312 312 312 312 311 311 310 309 307 306 305 303 302 301 300 299 298 298 297 297 297 296 296 296 295 295 295
305 304 304 303 304 305 308 312 317 319 321 321 321 321 321 320 319 318 318 318 318 318 318 317 317 316 316 315 315 315 315 314 314 314 314 314 314 313 313 313 313 312 311 312 312 311 311 310 309 308 306 305 303 302 300 299 299 298 297 297 296 296 296 295 295 295 294 294 293
306 305 304 303 304 305 307 311 315 318 320 321 321 321 321 321 320 319 318 316 317 317 318 318 317 316 315 314 314 315 315 314 314 314 314 314 313 313 313 313 312 311 310 311 311 311 310 309 308 307 305 303 302 300 299 298 297 297 296 295 295 295 295 294 294 293 293 292 292
306 306 305 304 303 304 306 310 314 317 319 320 320 321 321 321 321 320 319 317 318 318 318 317 316 316 315 315 315 315 314 315 314 314 314 313 313 313 312 311 311 310 309 310 310 310 309 308 307 305 304 302 300 299 298 297 296 296 295 294 294 294 293 293 293 292 292 291 291
306 306 306 305 304 304 306 309 312 316 318 320 320 320 321 321 321 321 320 318 318 318 317 316 316 316 315 315 315 315 315 315 314 314 313 313 313 312 311 311 310 310 309 309 309 309 308 307 306 305 303 300 299 298 297 296 295 294 294 293 293 292 292 292 292 291 291 291 291
306 307 307 306 305 304 305 308 311 315 318 319 320 320 320 321 321 321 320 318 319 319 318 316 316 316 316 315 315 315 315 315 314 314 313 313 312 311 311 310 310 309 309 308 308 308 307 307 305 304 303 300 299 298 296 295 294 293 293 292 292 291 291 291 291 291 291 291 292
306 306 307 307 306 305 305 307 310 314 317 319 320 320 320 321 320 320 320 319 320 319 318 317 317 317 316 315 315 315 314 314 314 314 313 313 312 310 309 310 309 309 308 307 307 306 306 306 305 304 302 300 298 297 296 295 293 292 292 291 291 290 290 290 291 290 290 291 292
306 307 308 308 307 306 305 306 309 313 316 318 320 320 320 320 319 320 320 320 319 319 319 318 317 317 316 314 315 314 313 313 313 313 313 312 311 309 309 310 309 308 307 306 306 306 306 305 305 304 302 300 298 297 295 294 293 291 291 291 290 290 290 289 290 290 290 290 290
Wind_Speed
9 9 8 8 7 6 5 5 5 5 5 6 6 7 7 7 7 7 7 7 7 7 7 7 7 7 8 10 11 11 11 10 11 11 11 11 10 10 10 10 10 9 8 8 8 8 8 8 7 6 5 5 5 5 5 5 6 6 6 6 5 5 6 7 7 6 6 6 5
10 10 9 8 6 6 5 5 5 5 4 4 5 6 6 6 6 6 6 6 6 6 6 6 7 7 8 10 11 11 10 10 11 11 11 11 10 10 10 10 10 9 9 9 9 8 8 8 7 6 5 5 5 5 5 5 6 6 7 7 5 5 5 6 6 7 6 6 5
10 10 9 8 7 7 6 6 6 5 5 4 5 5 5 5 5 5 6 5 5 5 5 5 6 7 8 10 10 10 10 10 11 11 10 10 10 10 10 10 10 10 9 9 9 8 7 7 7 6 5 5 5 6 5 5 5 6 6 7 5 4 4 5 5 5 5 4 4
10 10 9 9 9 8 8 7 7 6 6 5 5 5 5 5 4 5 5 5 5 5 5 5 6 7 8 9 10 10 9 9 11 11 10 10 9 10 10 10 10 10 9 9 8 8 7 7 6 5 5 6 6 6 6 5 5 5 5 5 4 4 4 4 4 4 4 4 4
10 10 9 9 10 9 8 7 7 7 6 5 5 5 5 4 4 4 4 5 5 5 5 6 6 7 7 9 10 10 10 10 10 10 10 10 9 10 10 10 10 9 9 9 8 8 7 7 5 5 5 6 6 6 6 6 6 5 4 4 4 4 4 4 4 4 4 3 3
10 10 10 9 10 9 8 8 8 8 7 6 6 6 6 5 5 5 5 5 5 5 6 7 7 7 7 9 10 10 10 9 10 10 10 10 9 10 10 10 10 9 9 9 8 8 8 7 5 4 4 5 5 5 6 7 6 5 4 4 3 3 4 4 4 4 4 4 4
11 11 10 10 10 9 8 8 8 8 7 7 7 8 7 7 6 6 6 6 5 5 6 6 7 8 8 9 9 9 9 9 9 10 10 10 10 10 10 10 10 10 9 9 9 8 8 7 5 4 4 4 4 5 6 6 6 6 5 4 3 3 4 4 4 4 5 6 6
10 10 10 11 10 10 9 9 9 8 7 7 8 9 9 8 8 8 7 6 6 6 6 6 8 9 9 9 10 10 10 10 10 10 10 10 10 10 11 10 10 10 10 10 9 9 8 7 5 5 5 4 4 5 6 7 7 6 6 5 4 3 3 4 4 4 5 7 7
9 9 10 10 10 10 10 10 10 9 8 8 9 9 9 9 9 9 8 7 6 6 6 6 8 10 10 10 10 10 10 10 10 10 10 10 11 11 11 10 10 10 10 9 10 10 9 7 5 5 5 4 4 5 6 8 8 8 7 5 4 4 4 4 5 5 6 7 7
8 8 9 9 10 10 10 10 10 10 9 9 9 9 9 9 9 9 8 7 7 7 7 7 8 10 11 11 11 11 11 10 10 11 11 11 11 11 11 10 10 10 10 9 9 9 9 7 6 6 5 5 6 6 7 8 8 8 7 5 5 5 5 5 5 6 7 7 7
6 7 8 9 9 10 10 10 9 9 9 9 9 9 9 9 9 9 8 7 7 8 8 8 9 10 11 11 11 11 11 10 10 11 11 11 11 11 11 11 10 10 10 9 9 8 8 7 6 7 6 6 6 7 8 8 8 8 7 5 6 6 6 6 6 6 6 7 7
4 6 7 8 9 9 9 9 9 8 8 8 9 9 9 9 9 9 9 8 9 9 9 9 10 10 11 10 10 11 10 11 11 11 11 11 11 12 12 11 11 11 10 10 9 8 7 7 7 8 8 7 6 7 7 9 9 9 8 7 7 7 7 7 7 6 6 7 7
3 4 6 8 9 9 9 9 8 8 8 9 9 9 9 8 9 9 9 9 9 9 9 9 10 10 10 10 10 10 10 10 11 11 11 11 11 11 12 11 11 11 10 10 9 8 8 8 8 9 9 8 7 7 8 9 9 9 9 9 8 8 8 8 8 7 7 7 7
2 4 6 8 9 9 9 9 8 8 8 9 9 9 8 8 9 9 9 9 9 9 9 8 9 9 10 10 10 11 11 10 11 11 11 11 11 11 11 11 11 11 10 9 9 9 9 9 9 10 10 10 8 8 8 9 10 10 10 10 10 9 9 9 9 8 8 8 8
2 3 5 7 8 9 8 8 7 7 8 9 9 9 8 8 8 9 9 9 9 9 8 8 9 9 10 11 11 11 11 10 11 11 11 11 11 11 11 11 11 11 10 10 9 9 10 10 10 10 10 10 10 9 9 9 9 10 10 11 11 10 10 10 9 9 9 9 9
2 3 4 6 7 8 8 8 7 7 7 8 8 8 8 8 8 8 9 9 8 8 8 9 9 9 9 10 11 11 10 10 11 11 11 11 11 12 12 11 11 11 11 11 10 9 9 10 10 10 10 10 10 10 10 10 9 10 10 10 10 10 10 10 10 10 9 9 9
3 3 3 5 5 6 7 8 7 7 7 8 8 9 8 8 8 8 8 9 8 8 8 9 9 9 9 10 10 10 10 10 10 11 11 12 12 12 12 12 12 12 11 11 11 10 10 10 10 10 10 10 10 10 10 10 10 10 10 9 9 9 9 10 10 9 9 9 9
4 4 4 6 6 6 6 7 7 7 8 8 8 9 8 8 8 8 8 9 9 9 9 10 9 9 9 10 10 10 10 10 11 11 12 12 12 12 12 12 12 12 12 11 11 11 11 11 10 9 9 9 10 10 10 10 10 9 9 9 8 8 9 9 9 8 8 9 9
6 6 6 8 8 8 7 6 6 7 7 8 8 8 8 9 9 9 9 9 9 10 10 10 10 9 10 11 10 10 10 11 11 12 12 11 11 12 12 12 11 11 11 11 11 11 11 11 10 9 9 9 9 9 9 9 9 8 8 8 8 8 8 8 8 7 7 8 8
6 6 6 8 9 9 8 7 5 5 6 7 7 8 8 9 9 10 10 10 10 10 10 11 10 10 10 11 11 11 10 10 11 12 12 11 11 11 12 12 11 11 11 11 11 11 11 10 10 10 9 9 9 9 9 8 8 7 7 7 7 7 7 7 7 6 7 7 8
6 5 5 6 7 8 8 7 5 4 4 5 7 7 8 8 9 10 10 10 10 10 10 11 11 11 10 11 11 11 10 9 10 11 11 11 11 11 12 11 11 11 10 10 10 10 10 10 10 10 10 10 10 9 8 8 7 7 7 6 6 7 7 7 6 6 6 7 7
6 6 5 5 4 5 6 6 5 4 3 4 5 6 7 8 9 9 10 9 9 10 10 11 11 11 11 11 11 11 10 8 9 10 10 10 11 11 11 11 11 11 10 9 9 10 11 11 11 11 10 10 9 9 9 8 8 8 8 7 7 7 7 7 6 6 6 6 7
6 6 5 5 4 4 4 5 5 5 4 3 4 5 6 7 8 8 8 8 9 9 9 10 10 11 11 11 11 11 10 9 9 9 10 10 10 10 10 10 11 11 10 9 10 10 11 11 11 11 10 10 9 9 9 9 9 8 8 9 8 8 8 7 7 6 6 6 6
8 7 5 4 4 4 4 4 6 7 7 6 5 5 6 7 7 7 7 8 9 9 9 9 9 10 10 10 11 10 10 10 10 9 9 10 10 10 10 9 10 10 9 8 9 11 11 10 10 10 10 9 9 9 8 9 9 9 9 10 9 9 8 8 7 7 7 6 6
8 7 6 5 5 5 5 5 6 8 9 9 7 6 6 6 7 7 7 8 8 9 9 9 9 9 9 9 10 10 10 10 10 10 10 10 10 9 9 9 8 8 8 8 11 13 14 12 10 9 9 9 8 8 8 8 9 9 10 10 10 10 9 9 8 8 7 7 6
7 7 6 6 5 5 5 5 6 8 9 9 7 6 6 6 6 6 7 8 8 8 9 9 8 8 8 9 9 10 10 10 10 10 10 10 10 9 9 8 7 7 7 9 14 16 17 15 13 12 10 9 9 8 8 8 9 9 10 10 10 10 10 9 9 8 7 7 7
7 6 6 6 6 6 5 5 6 6 7 7 6 5 5 5 6 6 7 8 8 8 8 8 8 8 8 8 9 10 10 9 9 10 10 10 10 10 9 8 7 6 7 12 16 18 18 18 17 15 13 10 10 9 8 8 9 9 9 9 10 10 11 11 10 9 9 8 8
7 6 6 6 6 6 6 6 6 6 6 6 6 6 5 4 5 6 7 7 7 7 7 7 7 7 7 7 9 10 10 10 9 9 10 10 10 10 10 8 7 7 9 15 18 19 19 19 19 18 16 13 10 10 10 9 9 9 9 9 9 10 10 10 10 10 10 9 9
7 6 6 5 6 7 7 7 7 7 6 6 7 8 8 7 6 6 7 7 7 7 7 6 5 5 6 7 8 9 10 9 9 9 9 9 10 9 9 8 7 9 12 17 19 20 19 19 19 19 17 15 11 9 8 9 9 8 8 8 8 9 9 9 10 10 10 10 10
7 6 6 5 5 6 8 8 9 8 7 5 7 9 10 10 8 7 7 8 8 8 7 6 6 6 7 8 8 9 9 9 8 8 8 9 9 9 8 8 8 10 14 19 20 20 20 20 20 20 19 17 13 10 8 8 9 8 8 8 9 10 10 10 11 11 11 10 10
8 7 6 5 5 5 7 9 10 9 8 6 6 8 10 11 10 9 8 8 7 6 6 6 7 8 8 8 8 8 8 8 7 8 8 9 9 9 8 9 9 11 14 20 20 21 21 21 20 20 19 17 13 11 9 9 9 9 8 9 10 11 11 11 11 12 12 12 12
8 7 6 6 6 5 6 8 10 10 9 8 7 7 7 9 9 8 8 7 6 6 6 6 8 8 8 7 7 8 8 8 8 8 9 9 9 9 9 9 10 12 15 20 21 21 21 21 21 20 19 17 13 11 10 10 9 9 9 10 11 11 11 10 10 12 13 13 12
9 8 7 6 6 6 6 6 8 9 10 9 9 8 7 6 6 7 7 7 6 6 7 7 8 9 9 8 8 8 8 8 9 9 9 9 10 10 10 9 10 12 16 20 21 22 22 22 21 20 19 17 13 11 10 10 8 8 8 9 10 10 10 10 10 11 12 13 11
9 8 7 7 6 6 6 6 6 8 10 11 10 9 8 6 6 7 8 7 7 6 6 7 8 8 9 9 8 8 8 7 8 8 9 9 10 11 10 9 9 12 16 21 21 22 22 22 21 20 19 16 12 10 10 10 8 8 8 9 9 9 9 10 10 10 11 11 10
10 9 8 7 7 7 7 7 6 7 10 12 12 11 10 8 7 6 7 7 6 6 6 6 6 6 7 7 7 8 8 8 8 9 9 10 11 11 11 10 9 13 17 21 21 21 22 22 22 21 18 15 11 9 9 10 9 9 10 10 10 9 9 9 9 9 9 9 10
12 10 9 8 8 7 7 7 7 7 9 12 13 13 12 10 8 6 5 5 6 6 7 6 6 6 6 6 6 7 8 10 10 10 10 11 11 12 11 11 11 14 18 20 21 21 22 22 22 21 18 13 10 9 9 9 9 9 10 10 10 10 9 9 8 8 8 8 10
13 12 10 9 8 8 8 8 7 7 9 11 13 13 13 12 8 6 4 4 5 6 7 7 6 7 7 7 7 7 8 11 11 12 12 12 12 12 12 12 12 15 18 20 21 22 22 23 22 20 17 12 10 9 9 8 8 9 10 10 10 9 9 8 8 8 8 9 10
14 13 12 10 9 8 8 8 8 8 9 10 11 12 12 11 8 6 5 5 5 6 6 7 7 7 8 8 8 9 9 11 12 13 13 13 13 13 13 13 14 15 17 19 21 22 23 23 23 20 17 12 11 10 9 8 9 9 9 9 9 9 8 7 7 7 8 10 12
14 13 13 11 10 9 9 9 8 9 9 10 10 10 10 9 8 7 6 6 5 6 6 6 7 7 7 7 7 8 9 10 11 13 13 14 13 14 14 15 14 15 16 19 21 22 23 24 23 21 18 14 12 10 9 9 10 10 9 9 9 8 8 7 6 7 8 11 14
14 13 13 12 11 10 10 9 9 9 8 8 9 9 10 9 8 7 6 6 6 7 7 7 6 6 6 7 7 8 9 9 10 11 12 13 13 14 14 15 15 15 16 18 21 22 23 24 23 21 18 13 11 10 9 9 10 10 10 9 9 8 7 7 6 7 8 10 13
13 13 13 12 11 10 10 10 10 9 8 7 9 9 8 8 7 7 7 7 8 8 8 7 7 6 6 6 7 7 8 8 8 9 10 11 12 13 13 14 15 15 16 17 20 22 23 24 23 22 19 13 11 10 9 10 10 11 11 10 9 8 8 7 7 7 7 8 9
Wind_Direction
154 159 161 161 158 155 153 153 150 148 147 149 151 153 154 157 158 159 162 166 169 171 173 175 177 177 173 168 169 172 174 171 171 173 177 180 181 180 177 176 173 172 172 174 175 175 175 175 172 172 175 180 182 183 181 175 169 168 170 171 168 165 164 166 171 174 176 177 177
161 162 160 157 152 150 149 150 146 143 142 145 146 149 153 156 157 158 161 166 168 168 168 170 172 173 171 167 168 170 171 168 169 172 176 179 180 179 178 177 176 174 173 174 175 177 178 175 172 172 174 179 181 183 184 181 172 168 168 167 163 161 163 167 173 175 176 176 173
164 162 158 156 153 152 152 152 147 143 140 140 143 147 151 155 156 158 161 164 163 162 162 164 168 169 168 167 168 169 170 167 169 171 175 179 179 179 179 179 178 176 174 174 177 179 178 175 174 173 173 178 181 185 186 183 173 169 168 167 160 158 162 171 173 173 173 173 166
165 161 159 157 155 155 154 153 147 144 142 141 143 147 151 155 156 157 157 156 154 157 161 164 165 166 166 167 168 169 169 167 168 170 174 177 177 178 179 180 179 178 176 175 178 178 176 174 175 175 174 176 180 184 186 183 177 175 172 167 158 157 161 168 170 171 170 167 161
166 163 161 159 157 155 153 150 147 146 145 145 147 151 154 155 155 154 154 157 161 163 163 161 163 165 166 167 168 168 168 166 168 170 173 176 176 178 179 179 180 179 177 175 176 175 173 172 177 177 176 177 182 185 184 176 175 176 173 164 158 156 159 163 166 167 164 159 152
166 164 162 160 157 154 152 149 148 148 149 150 154 158 160 161 160 160 162 165 163 160 156 157 160 162 164 165 167 167 167 167 169 172 173 175 176 178 179 180 181 180 178 175 173 171 170 173 177 178 177 178 184 182 175 168 170 171 168 161 158 154 154 158 161 159 154 147 142
165 163 162 159 157 154 151 149 150 151 152 155 160 164 166 166 165 165 165 164 159 155 155 158 162 164 165 165 167 168 168 170 172 173 174 175 177 179 180 181 181 180 178 175 172 170 170 175 177 177 177 179 181 175 170 166 166 166 163 161 157 150 149 154 155 152 148 145 141
164 161 160 158 156 154 151 150 152 154 157 162 167 169 169 168 166 165 163 161 160 160 161 163 165 166 166 167 169 170 171 171 174 176 176 177 178 180 181 181 181 181 180 176 173 172 172 176 177 176 176 178 176 171 167 165 163 161 158 156 149 145 145 149 148 146 146 145 141
162 159 157 156 156 154 153 153 156 160 164 168 171 172 170 167 165 164 164 164 165 165 165 165 167 167 168 169 171 172 173 174 176 177 178 179 179 181 182 182 183 183 182 179 176 174 173 175 176 177 176 176 174 171 167 164 162 158 154 147 142 138 136 138 142 143 142 142 140
160 157 156 156 157 155 155 156 161 164 167 169 171 171 170 167 166 167 168 168 166 167 168 168 168 168 170 171 173 174 175 176 178 179 179 180 181 182 183 183 184 184 184 183 179 176 174 174 174 174 174 173 170 167 165 162 159 155 151 145 142 138 136 136 139 140 140 140 139
164 159 157 157 157 156 156 159 164 167 169 169 170 170 170 169 169 170 170 168 168 171 173 171 170 171 172 174 176 176 177 177 178 179 181 182 182 183 184 184 184 184 184 184 181 178 176 176 172 171 170 169 165 163 161 159 155 150 147 144 143 141 140 140 140 140 139 139 137
185 166 158 156 157 158 159 162 167 171 172 170 170 171 172 172 171 171 170 169 172 175 175 172 173 173 175 176 178 178 177 177 178 179 181 182 183 183 184 183 183 184 184 183 182 180 179 176 171 169 168 166 165 163 160 157 152 148 145 146 147 146 145 145 144 142 140 138 136
225 183 163 155 157 159 162 166 170 173 174 173 173 173 174 174 173 172 172 173 174 176 177 175 175 176 177 178 179 179 179 179 178 179 181 182 183 183 184 183 183 183 183 182 182 181 179 174 170 169 168 167 166 163 160 157 153 150 149 150 152 152 150 149 147 144 140 139 139
255 201 173 159 159 162 166 170 173 176 176 175 175 175 175 174 174 175 175 176 176 177 177 176 178 180 181 180 180 181 181 180 179 180 181 182 183 184 184 183 182 182 182 182 182 180 177 172 171 170 170 168 165 162 159 158 155 154 154 155 157 157 155 153 150 146 144 143 144
262 211 182 165 162 165 169 174 176 177 176 176 176 176 175 175 176 177 177 178 178 177 177 178 182 184 184 182 181 181 181 181 181 182 182 183 184 185 185 184 182 182 182 182 182 179 175 171 172 172 171 167 163 161 160 159 158 158 159 161 161 159 157 155 153 151 150 150 149
257 214 189 173 170 170 172 176 178 177 176 176 176 175 175 176 177 178 179 179 178 178 178 180 183 185 185 183 182 182 182 183 183 184 185 185 185 186 186 184 183 182 181 180 180 178 175 172 173 173 171 166 162 161 161 161 160 162 163 164 162 160 158 157 157 156 156 154 154
244 221 194 178 186 183 180 178 179 177 176 176 175 175 176 176 177 179 180 180 179 179 180 182 183 184 184 184 183 183 183 184 186 187 188 188 188 188 187 186 183 182 181 180 179 177 174 173 174 172 169 165 162 162 162 162 162 164 165 164 162 160 158 158 158 158 158 157 157
224 217 197 182 199 204 199 184 179 175 174 174 174 175 175 175 176 179 181 181 180 180 180 181 182 183 183 183 183 184 185 187 188 190 191 191 189 189 188 187 184 183 182 181 178 176 173 173 172 170 167 164 163 163 163 164 164 163 163 161 158 156 156 157 157 158 158 158 157
215 213 203 190 200 210 214 201 183 174 172 173 173 174 175 174 175 177 180 183 182 180 179 180 181 182 182 183 184 185 187 188 190 191 192 191 190 189 189 187 185 184 183 182 178 174 172 170 168 166 164 163 163 163 163 163 161 159 156 153 151 150 150 151 153 153 154 154 151
221 222 216 203 200 207 215 217 195 177 170 173 173 174 174 173 173 175 179 183 182 180 178 179 181 182 182 183 183 185 187 189 190 190 190 190 189 189 188 187 185 184 184 182 176 172 169 166 163 161 160 159 160 160 159 157 153 148 145 142 141 141 141 142 142 143 143 144 144
232 238 239 230 214 210 214 222 213 189 171 172 174 175 175 173 174 176 179 181 180 178 178 179 180 181 182 182 184 186 187 188 189 189 189 189 189 188 187 185 183 183 183 180 172 168 164 161 158 157 156 156 157 157 154 149 143 137 133 130 128 127 128 128 129 130 132 136 139
245 247 258 268 251 231 219 220 226 221 200 180 180 180 178 177 177 178 178 178 176 177 178 180 181 181 182 183 184 185 186 187 187 188 188 187 188 187 185 183 181 180 179 175 167 162 158 156 155 154 154 155 155 152 148 143 136 130 125 120 117 115 114 113 115 118 122 128 132
274 264 269 280 279 265 239 218 223 231 236 220 199 190 186 184 181 178 175 175 176 177 179 181 181 182 183 183 183 183 183 184 185 186 187 186 185 184 183 180 179 178 176 169 162 157 155 153 153 153 153 151 150 147 143 139 134 129 124 119 115 110 107 105 106 108 111 115 118
290 274 265 267 266 262 249 225 215 221 229 233 216 202 194 190 183 177 173 175 178 179 180 181 183 182 182 182 181 181 181 182 183 184 185 184 183 181 179 178 176 175 172 166 160 157 155 153 152 151 149 146 145 142 140 137 134 131 128 124 118 113 107 103 103 104 105 106 106
297 275 257 251 250 249 244 233 217 217 221 226 215 204 197 194 186 178 174 177 180 181 182 181 181 181 181 181 181 181 182 182 182 182 182 182 181 178 176 175 173 171 167 162 158 156 154 152 150 147 144 141 138 136 134 133 134 133 132 129 124 119 114 108 105 105 105 106 106
309 284 257 242 241 243 244 240 230 224 221 220 208 199 193 194 188 182 178 179 182 183 182 181 179 179 180 181 181 182 184 184 183 181 180 180 178 175 173 172 168 165 162 159 157 156 153 150 147 144 141 139 136 134 132 132 134 134 133 131 129 126 124 120 116 113 111 110 112
320 300 271 245 237 239 244 248 247 239 229 218 207 199 194 193 191 187 183 182 183 182 181 180 179 178 179 180 181 183 185 186 184 182 180 178 175 174 173 170 166 162 158 158 156 154 151 148 145 143 140 138 137 137 137 135 135 133 132 131 131 131 131 129 127 125 122 120 120
322 310 288 255 241 237 241 249 255 251 238 214 209 211 214 206 198 193 190 186 182 180 180 182 179 178 178 180 184 185 186 186 184 182 181 179 176 174 172 168 163 159 157 157 155 153 150 147 145 143 141 139 138 137 137 136 135 135 134 133 134 134 135 135 134 132 131 130 129
314 311 300 269 246 237 236 242 250 251 243 215 203 209 221 227 213 202 195 189 182 181 182 183 179 177 179 183 186 186 186 185 183 181 180 177 175 172 167 161 156 155 156 156 154 152 149 147 146 144 143 141 140 139 139 139 139 139 138 138 139 140 141 141 139 138 137 136 134
306 307 304 290 259 236 228 228 237 244 246 229 202 203 211 222 218 209 199 192 188 185 183 179 176 178 182 185 185 185 185 186 182 178 175 174 172 167 162 155 154 155 156 157 154 151 149 148 147 145 144 142 140 140 141 142 142 142 143 143 145 146 146 145 144 143 141 139 137
301 300 302 304 287 252 229 219 222 230 239 243 221 208 207 212 214 210 203 196 192 188 182 174 174 177 181 182 181 183 184 183 179 175 172 170 167 161 156 152 153 155 157 157 154 152 150 149 148 147 145 144 142 142 143 145 145 146 147 148 150 150 149 148 147 146 144 142 141
299 297 297 302 299 282 253 225 214 214 220 232 233 226 216 211 210 208 204 199 193 186 180 176 176 178 179 178 180 180 180 179 177 174 171 167 161 156 151 150 154 157 158 158 155 153 151 150 149 148 146 145 142 141 142 143 144 144 145 147 150 151 151 149 148 146 145 144 144
303 298 296 297 297 293 280 251 218 205 204 212 225 232 233 222 211 206 203 200 192 185 182 181 180 180 178 177 178 178 177 176 174 170 165 159 153 150 148 150 155 158 159 159 156 154 153 151 149 148 145 143 139 138 139 139 139 139 141 144 146 147 147 146 146 146 145 144 143
310 303 297 293 293 293 288 274 236 208 197 199 212 224 233 233 218 208 203 199 192 186 183 184 184 182 180 177 175 174 172 171 165 161 156 152 149 148 149 153 157 160 160 159 157 155 153 151 148 145 142 138 135 133 134 134 134 135 136 138 139 140 140 140 141 142 141 140 138
317 309 300 292 291 290 288 280 254 219 200 194 202 213 223 230 222 211 201 194 186 182 181 185 186 183 179 175 170 167 163 159 156 153 151 149 148 149 151 154 156 160 161 160 158 155 152 150 146 143 139 134 130 129 130 130 130 131 133 133 133 133 133 133 133 133 132 130 128
321 314 306 296 291 289 286 281 262 232 209 197 198 203 211 219 218 210 198 184 177 175 177 180 180 179 176 173 168 163 159 156 153 151 151 151 151 152 153 154 156 159 161 160 157 155 152 149 145 141 136 131 128 127 127 127 127 128 129 129 129 129 129 127 125 123 122 122 125
320 316 309 300 292 287 284 279 265 242 219 205 200 200 203 207 208 203 190 173 171 173 175 176 176 177 178 175 170 165 159 156 154 153 154 155 156 156 155 154 157 160 162 161 157 154 151 148 145 141 136 131 129 128 127 125 125 125 125 125 124 124 124 122 120 118 119 123 127
317 314 311 304 295 288 282 277 266 248 229 214 205 201 200 199 198 194 185 174 173 175 177 177 177 179 179 175 169 163 159 157 157 157 158 160 160 158 156 155 158 161 163 161 158 155 152 149 146 143 139 134 133 132 131 128 127 126 125 124 122 121 120 119 119 119 122 127 132
313 311 309 306 298 290 282 275 265 251 235 220 211 204 200 197 195 191 185 179 179 182 183 182 180 178 174 169 164 160 159 161 162 161 161 163 163 160 157 156 159 162 163 162 158 156 153 151 148 145 141 136 136 135 133 131 130 129 128 126 124 121 119 118 120 122 126 131 135
309 308 307 304 298 290 282 273 264 253 240 225 213 206 201 197 194 188 183 180 184 189 192 189 180 170 162 159 158 159 160 164 166 166 165 164 162 159 157 157 159 161 162 162 159 157 155 153 150 146 142 136 136 135 133 132 132 132 132 131 129 126 123 122 124 127 130 134 138
307 307 306 304 298 291 282 274 265 256 243 228 214 207 200 194 189 184 180 180 184 188 190 189 178 166 155 151 153 156 159 162 166 167 165 162 160 158 158 158 158 159 161 162 160 159 157 154 151 148 144 139 137 136 135 135 135 135 137 137 134 132 130 129 129 131 134 137 140